Simultaneous Nadir Overpasses (SNOs) Predictions

Prediction of SNOs between FY3D and NOAA-19 Satellite Orbit:

Table of predicted SNOs for the next 14.0 days since TLE Epoch: 7/18/2020
Index Date (FY3D) Time (FY3D) Lat,Lon (FY3D) SZA (FY3D ) Date (NOAA-19) Time (NOAA-19) Lat,Lon (NOAA-19) SZA (NOAA-19 ) Distance(km) Time Diff (sec)
1 07/25/2020 13:06:28 -79.05, 133.79 118.77 07/25/2020 13:05:22 -79.06, 130.28 118.33 74.03 66
2 07/25/2020 13:57:19 79.28, -60.61 61.62 07/25/2020 13:56:10 79.29, -60.49 61.64 2.69 69
3 07/25/2020 14:48:04 -79.29, 106.64 118.36 07/25/2020 14:47:16 -79.27, 106.53 118.35 3.41 48
4 07/25/2020 15:38:48 79.28, -85.96 61.63 07/25/2020 15:38:11 79.28, -86.11 61.66 2.96 37
5 07/25/2020 16:29:33 -79.29, 81.29 118.35 07/25/2020 16:29:16 -79.29, 81.18 118.34 2.18 17
6 07/25/2020 17:20:17 79.28,-111.32 61.64 07/25/2020 17:20:11 79.30,-111.45 61.67 3.26 6
7 07/25/2020 18:11:02 -79.29, 55.93 118.34 07/25/2020 18:11:16 -79.30, 55.83 118.32 2.52 14
8 07/25/2020 19:01:47 79.31,-136.94 61.71 07/25/2020 19:02:11 79.31,-136.80 61.69 2.89 24
9 07/25/2020 19:52:32 -79.32, 30.31 118.27 07/25/2020 19:53:16 -79.32, 30.49 118.31 3.58 44
10 07/25/2020 20:43:16 79.31,-162.30 61.72 07/25/2020 20:44:12 79.30,-162.42 61.70 2.84 56
11 07/25/2020 21:34:02 -79.35, 4.69 118.20 07/25/2020 21:35:16 -79.33, 5.14 118.30 9.33 74
